When you browse on this site, cookies collect data to enhance your experience and personalize the content and advertising you see.
Visit our Privacy Policy to learn more. By continuing to use the site, you agree to this use of cookies and data.

Tiempo cada hora Balho

Hoy, 7 Agosto, Viernes

Tiempo Temperatura Precipitaciones Viento Presión Humedad
00:00 +33°C° 0 mm 4 mps 734 mmHg 61%
01:00 +33°C° 0.1 mm 4 mps 734 mmHg 63%
02:00 +32°C° 0.1 mm 5 mps 733 mmHg 66%
03:00 +32°C° 0.1 mm 5 mps 733 mmHg 68%
04:00 +30°C° 0.2 mm 5 mps 733 mmHg 71%
05:00 +28°C° 0.2 mm 6 mps 734 mmHg 74%
06:00 +27°C° 0.2 mm 6 mps 734 mmHg 76%
07:00 +28°C° 0.2 mm 5 mps 735 mmHg 71%
08:00 +29°C° 0.2 mm 5 mps 735 mmHg 66%
09:00 +29°C° 0.2 mm 4 mps 735 mmHg 61%
10:00 +32°C° 0.2 mm 4 mps 735 mmHg 58%
11:00 +33°C° 0.2 mm 4 mps 735 mmHg 54%
12:00 +34°C° 0.2 mm 4 mps 735 mmHg 51%
13:00 +34°C° 0.1 mm 4 mps 734 mmHg 49%
14:00 +35°C° 0.1 mm 4 mps 733 mmHg 47%
15:00 +36°C° 0.1 mm 5 mps 732 mmHg 46%
16:00 +36°C° 0 mm 5 mps 732 mmHg 46%
17:00 +36°C° 0 mm 4 mps 732 mmHg 47%
18:00 +36°C° 0 mm 4 mps 732 mmHg 48%
19:00 +35°C° 0.4 mm 4 mps 733 mmHg 51%
20:00 +34°C° 0.4 mm 3 mps 733 mmHg 54%
21:00 +34°C° 0.4 mm 2 mps 733 mmHg 57%
22:00 +32°C° 0.5 mm 2 mps 733 mmHg 59%
23:00 +32°C° 0.5 mm 2 mps 733 mmHg 61%

Mañana, 8 Agosto, Sábado

Tiempo Temperatura Precipitaciones Viento Presión Humedad
00:00 +32°C° 0.5 mm 1 mps 733 mmHg 64%
01:00 +31°C° 0.1 mm 1 mps 733 mmHg 65%
02:00 +31°C° 0.1 mm 1 mps 732 mmHg 67%
03:00 +31°C° 0.1 mm 2 mps 732 mmHg 69%
04:00 +30°C° 0 mm 2 mps 732 mmHg 70%
05:00 +30°C° 0 mm 2 mps 732 mmHg 71%
06:00 +30°C° 0 mm 2 mps 732 mmHg 72%
07:00 +31°C° 0 mm 2 mps 733 mmHg 67%
08:00 +32°C° 0 mm 2 mps 733 mmHg 63%
09:00 +32°C° 0 mm 2 mps 734 mmHg 58%
10:00 +35°C° 0 mm 2 mps 733 mmHg 53%
11:00 +36°C° 0 mm 3 mps 733 mmHg 48%
12:00 +37°C° 0 mm 3 mps 733 mmHg 43%
13:00 +38°C° 0 mm 4 mps 732 mmHg 41%
14:00 +40°C° 0 mm 4 mps 731 mmHg 39%
15:00 +40°C° 0 mm 5 mps 730 mmHg 36%
16:00 +40°C° 0 mm 5 mps 730 mmHg 36%
17:00 +40°C° 0 mm 5 mps 730 mmHg 36%
18:00 +40°C° 0 mm 5 mps 730 mmHg 36%
19:00 +38°C° 0 mm 4 mps 730 mmHg 39%
20:00 +37°C° 0 mm 4 mps 731 mmHg 43%
21:00 +37°C° 0 mm 4 mps 731 mmHg 46%
22:00 +36°C° 0 mm 3 mps 731 mmHg 48%
23:00 +35°C° 0 mm 2 mps 731 mmHg 51%

Pasado mañana, 9 Agosto, Domingo

Tiempo Temperatura Precipitaciones Viento Presión Humedad
00:00 +34°C° 0 mm 1 mps 731 mmHg 53%
01:00 +33°C° 0.1 mm 1 mps 731 mmHg 55%
02:00 +33°C° 0.1 mm 1 mps 731 mmHg 57%
03:00 +32°C° 0.1 mm 2 mps 731 mmHg 60%
04:00 +32°C° 0.1 mm 2 mps 731 mmHg 61%
05:00 +31°C° 0.1 mm 2 mps 731 mmHg 63%
06:00 +30°C° 0.1 mm 2 mps 731 mmHg 65%
07:00 +31°C° 0 mm 2 mps 732 mmHg 61%
08:00 +33°C° 0 mm 3 mps 732 mmHg 57%
09:00 +34°C° 0 mm 3 mps 732 mmHg 54%
10:00 +35°C° 0 mm 3 mps 732 mmHg 49%
11:00 +36°C° 0 mm 3 mps 732 mmHg 44%
12:00 +37°C° 0 mm 3 mps 732 mmHg 40%
13:00 +38°C° 0 mm 3 mps 731 mmHg 37%
14:00 +39°C° 0 mm 2 mps 730 mmHg 34%
15:00 +39°C° 0 mm 2 mps 730 mmHg 31%
16:00 +40°C° 0 mm 2 mps 730 mmHg 31%
17:00 +40°C° 0 mm 1 mps 730 mmHg 30%
18:00 +40°C° 0 mm 1 mps 730 mmHg 29%
19:00 +39°C° 0 mm 2 mps 730 mmHg 32%
20:00 +38°C° 0 mm 3 mps 731 mmHg 36%
21:00 +38°C° 0 mm 4 mps 732 mmHg 39%
22:00 +37°C° 0 mm 3 mps 732 mmHg 42%
23:00 +36°C° 0 mm 2 mps 732 mmHg 45%

10 Agosto, Lunes

Tiempo Temperatura Precipitaciones Viento Presión Humedad
00:00 +36°C° 0 mm 2 mps 732 mmHg 48%
01:00 +35°C° 0 mm 2 mps 732 mmHg 50%
02:00 +34°C° 0 mm 1 mps 731 mmHg 52%
03:00 +33°C° 0 mm 1 mps 731 mmHg 54%
04:00 +34°C° 0 mm 2 mps 731 mmHg 56%
05:00 +32°C° 0 mm 2 mps 732 mmHg 57%
06:00 +32°C° 0 mm 2 mps 732 mmHg 59%
07:00 +32°C° 0 mm 2 mps 732 mmHg 56%
08:00 +34°C° 0 mm 2 mps 733 mmHg 52%
09:00 +35°C° 0 mm 2 mps 733 mmHg 49%
10:00 +36°C° 0 mm 2 mps 733 mmHg 44%
11:00 +37°C° 0 mm 2 mps 732 mmHg 40%
12:00 +38°C° 0 mm 2 mps 732 mmHg 36%
13:00 +39°C° 0 mm 3 mps 732 mmHg 33%
14:00 +41°C° 0 mm 4 mps 731 mmHg 30%
15:00 +42°C° 0 mm 5 mps 730 mmHg 27%
16:00 +42°C° 0 mm 6 mps 730 mmHg 29%
17:00 +41°C° 0 mm 6 mps 730 mmHg 30%
18:00 +41°C° 0 mm 6 mps 730 mmHg 32%
19:00 +40°C° 0 mm 6 mps 730 mmHg 35%
20:00 +39°C° 0 mm 6 mps 731 mmHg 39%
21:00 +38°C° 0 mm 6 mps 731 mmHg 42%
22:00 +36°C° 0 mm 5 mps 731 mmHg 44%
23:00 +36°C° 0 mm 4 mps 731 mmHg 46%

11 Agosto, Martes

Tiempo Temperatura Precipitaciones Viento Presión Humedad
00:00 +35°C° 0 mm 4 mps 731 mmHg 48%
01:00 +35°C° 0 mm 4 mps 731 mmHg 49%
02:00 +35°C° 0 mm 3 mps 731 mmHg 49%
03:00 +34°C° 0 mm 3 mps 730 mmHg 50%
04:00 +34°C° 0 mm 2 mps 731 mmHg 51%
05:00 +34°C° 0 mm 2 mps 731 mmHg 52%
06:00 +33°C° 0 mm 1 mps 731 mmHg 53%
07:00 +34°C° 0 mm 1 mps 732 mmHg 50%
08:00 +35°C° 0 mm 2 mps 732 mmHg 46%
09:00 +36°C° 0 mm 2 mps 733 mmHg 43%
10:00 +38°C° 0 mm 4 mps 732 mmHg 39%
11:00 +40°C° 0 mm 5 mps 732 mmHg 36%
12:00 +41°C° 0 mm 7 mps 732 mmHg 32%
13:00 +43°C° 0 mm 7 mps 731 mmHg 32%
14:00 +43°C° 0 mm 8 mps 730 mmHg 31%
15:00 +43°C° 0 mm 8 mps 730 mmHg 31%
16:00 +43°C° 0 mm 8 mps 729 mmHg 31%
17:00 +41°C° 0 mm 8 mps 729 mmHg 31%
18:00 +42°C° 0 mm 9 mps 729 mmHg 31%
19:00 +40°C° 0 mm 8 mps 730 mmHg 35%
20:00 +39°C° 0 mm 7 mps 730 mmHg 38%
21:00 +38°C° 0 mm 7 mps 731 mmHg 42%
22:00 +36°C° 0 mm 6 mps 730 mmHg 43%
23:00 +36°C° 0 mm 5 mps 730 mmHg 45%

12 Agosto, Miércoles

Tiempo Temperatura Precipitaciones Viento Presión Humedad
00:00 +35°C° 0 mm 5 mps 730 mmHg 47%
01:00 +35°C° 0 mm 4 mps 730 mmHg 47%
02:00 +35°C° 0 mm 3 mps 730 mmHg 47%
03:00 +35°C° 0 mm 2 mps 730 mmHg 46%
04:00 +34°C° 0 mm 1 mps 730 mmHg 48%
05:00 +34°C° 0 mm 1 mps 731 mmHg 49%
06:00 +33°C° 0 mm 1 mps 731 mmHg 51%
07:00 +35°C° 0 mm 2 mps 732 mmHg 48%
08:00 +36°C° 0 mm 2 mps 732 mmHg 46%
09:00 +36°C° 0 mm 2 mps 732 mmHg 43%
10:00 +37°C° 0 mm 2 mps 732 mmHg 39%
11:00 +38°C° 0 mm 2 mps 732 mmHg 35%
12:00 +39°C° 0 mm 2 mps 732 mmHg 32%
13:00 +40°C° 0 mm 3 mps 731 mmHg 31%
14:00 +42°C° 0 mm 4 mps 731 mmHg 30%
15:00 +42°C° 0 mm 5 mps 730 mmHg 29%
16:00 +41°C° 0.2 mm 4 mps 730 mmHg 31%
17:00 +41°C° 0.2 mm 4 mps 730 mmHg 32%
18:00 +40°C° 0.2 mm 4 mps 730 mmHg 34%
19:00 +37°C° 0.5 mm 4 mps 731 mmHg 42%
20:00 +36°C° 0.5 mm 3 mps 731 mmHg 49%
21:00 +34°C° 0.5 mm 3 mps 732 mmHg 56%
22:00 +34°C° 0 mm 2 mps 732 mmHg 56%
23:00 +33°C° 0 mm 1 mps 732 mmHg 56%
Mostrar más